カタログに戻る

STARLINK-4307

運用中通信SSO
NORAD 53063·PAYLOAD·🇺🇸 United States

打ち上げ Jul 11, 2022 から Vandenberg Space Force Base

Loading…

次のパス (今後24時間)

TLE

最新Source: CelesTrak SupGP

元期: Sep 14, 2026, 21:54 UTC

1 53063C 22077W   26257.91298611  .00076453  00000+0  23727-2 0  2578
2 53063  97.2857  73.6735 0001608 102.6735  30.0762 15.33407266    13

AllMySatでSTARLINK-4307をリアルタイム追跡

Download on the App Store